<?xml version="1.0" encoding="UTF-8" standalone="no" ?>
<gpx xmlns="http://www.topografix.com/GPX/1/1" xmlns:xsi="http://www.w3.org/2001/XMLSchema-instance" xsi:schemaLocation="http://www.topografix.com/GPX/1/1 http://www.topografix.com/GPX/1/1/gpx.xsd" version="1.1" creator="VisuGPX - https://www.visugpx.com">
  <metadata>
    <name>Extreme-Loue-33-450-A</name>
    <desc><![CDATA[Extreme Loue - 33 km - 450 m - Première partie : 13 km - 50 m]]></desc>
  </metadata>
  <trk>
    <name><![CDATA[Extreme-Loue-33-450-A]]></name>
    <trkseg>
      <trkpt lat="47.06891" lon="6.20478">
        <ele>346.618652</ele>
      </trkpt>
      <trkpt lat="47.0692" lon="6.20461">
        <ele>345.27005</ele>
      </trkpt>
      <trkpt lat="47.06966" lon="6.20438">
        <ele>346.332733</ele>
      </trkpt>
      <trkpt lat="47.07043" lon="6.20395">
        <ele>345.458405</ele>
      </trkpt>
      <trkpt lat="47.07115" lon="6.20336">
        <ele>347.094482</ele>
      </trkpt>
      <trkpt lat="47.07132" lon="6.20311">
        <ele>347.753906</ele>
      </trkpt>
      <trkpt lat="47.07147" lon="6.20287">
        <ele>346.742126</ele>
      </trkpt>
      <trkpt lat="47.07174" lon="6.20232">
        <ele>345.036804</ele>
      </trkpt>
      <trkpt lat="47.07192" lon="6.20172">
        <ele>343.105438</ele>
      </trkpt>
      <trkpt lat="47.07216" lon="6.2005">
        <ele>340.218597</ele>
      </trkpt>
      <trkpt lat="47.07232" lon="6.19907">
        <ele>342.214996</ele>
      </trkpt>
      <trkpt lat="47.07257" lon="6.19733">
        <ele>341.163757</ele>
      </trkpt>
      <trkpt lat="47.07257" lon="6.19732">
        <ele>341.178467</ele>
      </trkpt>
      <trkpt lat="47.07264" lon="6.19668">
        <ele>342.089844</ele>
      </trkpt>
      <trkpt lat="47.07262" lon="6.19634">
        <ele>343.228302</ele>
      </trkpt>
      <trkpt lat="47.07268" lon="6.19591">
        <ele>344.468048</ele>
      </trkpt>
      <trkpt lat="47.07285" lon="6.19478">
        <ele>346.361176</ele>
      </trkpt>
      <trkpt lat="47.07297" lon="6.19387">
        <ele>344.126007</ele>
      </trkpt>
      <trkpt lat="47.07303" lon="6.19357">
        <ele>343.423553</ele>
      </trkpt>
      <trkpt lat="47.07304" lon="6.19342">
        <ele>343.311737</ele>
      </trkpt>
      <trkpt lat="47.073" lon="6.19332">
        <ele>343.846802</ele>
      </trkpt>
      <trkpt lat="47.07288" lon="6.19315">
        <ele>345.289673</ele>
      </trkpt>
      <trkpt lat="47.07277" lon="6.1929">
        <ele>346.385559</ele>
      </trkpt>
      <trkpt lat="47.07271" lon="6.19259">
        <ele>347.605865</ele>
      </trkpt>
      <trkpt lat="47.07271" lon="6.19243">
        <ele>347.998993</ele>
      </trkpt>
      <trkpt lat="47.07277" lon="6.19231">
        <ele>347.449249</ele>
      </trkpt>
      <trkpt lat="47.0729" lon="6.19216">
        <ele>346.735992</ele>
      </trkpt>
      <trkpt lat="47.07321" lon="6.1915">
        <ele>346.488708</ele>
      </trkpt>
      <trkpt lat="47.07352" lon="6.19082">
        <ele>346.290527</ele>
      </trkpt>
      <trkpt lat="47.0739" lon="6.19023">
        <ele>344.725311</ele>
      </trkpt>
      <trkpt lat="47.07473" lon="6.18931">
        <ele>348.320831</ele>
      </trkpt>
      <trkpt lat="47.07512" lon="6.1887">
        <ele>347.078094</ele>
      </trkpt>
      <trkpt lat="47.07521" lon="6.18859">
        <ele>346.746216</ele>
        <time>2020-08-22T09:25:57Z</time>
      </trkpt>
      <trkpt lat="47.07521" lon="6.18859">
        <ele>346.746216</ele>
        <time>2020-08-22T09:25:57Z</time>
      </trkpt>
      <trkpt lat="47.07552" lon="6.18807">
        <ele>346.831512</ele>
        <time>2020-08-22T09:26:08Z</time>
      </trkpt>
      <trkpt lat="47.0758" lon="6.18787">
        <ele>345.051697</ele>
        <time>2020-08-22T09:26:15Z</time>
      </trkpt>
      <trkpt lat="47.07625" lon="6.18726">
        <ele>350.053192</ele>
        <time>2020-08-22T09:26:30Z</time>
      </trkpt>
      <trkpt lat="47.07678" lon="6.18702">
        <ele>350.179993</ele>
        <time>2020-08-22T09:26:43Z</time>
      </trkpt>
      <trkpt lat="47.07735" lon="6.18687">
        <ele>348.684235</ele>
        <time>2020-08-22T09:26:56Z</time>
      </trkpt>
      <trkpt lat="47.07793" lon="6.18676">
        <ele>346.796936</ele>
        <time>2020-08-22T09:27:10Z</time>
      </trkpt>
      <trkpt lat="47.07875" lon="6.18649">
        <ele>347.103607</ele>
        <time>2020-08-22T09:27:29Z</time>
      </trkpt>
      <trkpt lat="47.07963" lon="6.18631">
        <ele>347.316406</ele>
        <time>2020-08-22T09:27:50Z</time>
      </trkpt>
      <trkpt lat="47.07985" lon="6.18658">
        <ele>342.59613</ele>
        <time>2020-08-22T09:27:57Z</time>
      </trkpt>
      <trkpt lat="47.08012" lon="6.18651">
        <ele>342.023193</ele>
        <time>2020-08-22T09:28:03Z</time>
      </trkpt>
      <trkpt lat="47.0804" lon="6.18633">
        <ele>341.946381</ele>
        <time>2020-08-22T09:28:10Z</time>
      </trkpt>
      <trkpt lat="47.08061" lon="6.18664">
        <ele>339.572784</ele>
        <time>2020-08-22T09:28:17Z</time>
      </trkpt>
      <trkpt lat="47.08087" lon="6.18689">
        <ele>339.746246</ele>
        <time>2020-08-22T09:28:25Z</time>
      </trkpt>
      <trkpt lat="47.08106" lon="6.18718">
        <ele>340.375</ele>
        <time>2020-08-22T09:28:31Z</time>
      </trkpt>
      <trkpt lat="47.08118" lon="6.1875">
        <ele>340.557495</ele>
        <time>2020-08-22T09:28:37Z</time>
      </trkpt>
      <trkpt lat="47.08124" lon="6.18788">
        <ele>340.733521</ele>
        <time>2020-08-22T09:28:43Z</time>
      </trkpt>
      <trkpt lat="47.08141" lon="6.18977">
        <ele>341.645111</ele>
        <time>2020-08-22T09:29:13Z</time>
      </trkpt>
      <trkpt lat="47.08149" lon="6.19007">
        <ele>342.134155</ele>
        <time>2020-08-22T09:29:18Z</time>
      </trkpt>
      <trkpt lat="47.08164" lon="6.19021">
        <ele>341.805084</ele>
        <time>2020-08-22T09:29:23Z</time>
      </trkpt>
      <trkpt lat="47.0824" lon="6.19024">
        <ele>341.301849</ele>
        <time>2020-08-22T09:29:40Z</time>
      </trkpt>
      <trkpt lat="47.08282" lon="6.19015">
        <ele>341.852509</ele>
        <time>2020-08-22T09:29:50Z</time>
      </trkpt>
      <trkpt lat="47.08312" lon="6.19017">
        <ele>342.517487</ele>
        <time>2020-08-22T09:29:57Z</time>
      </trkpt>
      <trkpt lat="47.08328" lon="6.19021">
        <ele>342.690002</ele>
        <time>2020-08-22T09:30:01Z</time>
      </trkpt>
      <trkpt lat="47.08351" lon="6.19034">
        <ele>343.074432</ele>
        <time>2020-08-22T09:30:07Z</time>
      </trkpt>
      <trkpt lat="47.08371" lon="6.19042">
        <ele>344.86496</ele>
        <time>2020-08-22T09:30:12Z</time>
      </trkpt>
      <trkpt lat="47.0838" lon="6.19038">
        <ele>345.49231</ele>
        <time>2020-08-22T09:30:14Z</time>
      </trkpt>
      <trkpt lat="47.08501" lon="6.18884">
        <ele>342.545654</ele>
        <time>2020-08-22T09:30:51Z</time>
      </trkpt>
      <trkpt lat="47.08525" lon="6.18878">
        <ele>345.463806</ele>
        <time>2020-08-22T09:30:57Z</time>
      </trkpt>
      <trkpt lat="47.08553" lon="6.18861">
        <ele>346.904388</ele>
        <time>2020-08-22T09:31:04Z</time>
      </trkpt>
      <trkpt lat="47.08629" lon="6.18783">
        <ele>345.533539</ele>
        <time>2020-08-22T09:31:26Z</time>
      </trkpt>
      <trkpt lat="47.08678" lon="6.18758">
        <ele>347.043762</ele>
        <time>2020-08-22T09:31:38Z</time>
      </trkpt>
      <trkpt lat="47.08711" lon="6.18744">
        <ele>347.198761</ele>
        <time>2020-08-22T09:31:46Z</time>
      </trkpt>
      <trkpt lat="47.08746" lon="6.18724">
        <ele>345.754425</ele>
        <time>2020-08-22T09:31:55Z</time>
      </trkpt>
      <trkpt lat="47.08794" lon="6.18675">
        <ele>341.947601</ele>
        <time>2020-08-22T09:32:08Z</time>
      </trkpt>
      <trkpt lat="47.0882" lon="6.18642">
        <ele>341.462402</ele>
        <time>2020-08-22T09:32:16Z</time>
      </trkpt>
      <trkpt lat="47.08839" lon="6.1864">
        <ele>342.37085</ele>
        <time>2020-08-22T09:32:21Z</time>
      </trkpt>
      <trkpt lat="47.08865" lon="6.18633">
        <ele>343.286255</ele>
        <time>2020-08-22T09:32:27Z</time>
      </trkpt>
      <trkpt lat="47.08935" lon="6.1862">
        <ele>342.359436</ele>
        <time>2020-08-22T09:32:43Z</time>
      </trkpt>
      <trkpt lat="47.08962" lon="6.18624">
        <ele>342.555206</ele>
        <time>2020-08-22T09:32:50Z</time>
      </trkpt>
      <trkpt lat="47.08979" lon="6.18632">
        <ele>343.924805</ele>
        <time>2020-08-22T09:32:54Z</time>
      </trkpt>
      <trkpt lat="47.09033" lon="6.18558">
        <ele>344.993683</ele>
        <time>2020-08-22T09:33:11Z</time>
      </trkpt>
      <trkpt lat="47.09057" lon="6.18529">
        <ele>345.781219</ele>
        <time>2020-08-22T09:33:18Z</time>
      </trkpt>
      <trkpt lat="47.09117" lon="6.18441">
        <ele>348.062958</ele>
        <time>2020-08-22T09:33:38Z</time>
      </trkpt>
      <trkpt lat="47.09135" lon="6.18421">
        <ele>349.936615</ele>
        <time>2020-08-22T09:33:43Z</time>
      </trkpt>
      <trkpt lat="47.09179" lon="6.18398">
        <ele>356.869995</ele>
        <time>2020-08-22T09:33:54Z</time>
      </trkpt>
      <trkpt lat="47.09197" lon="6.1838">
        <ele>358.726959</ele>
        <time>2020-08-22T09:33:59Z</time>
      </trkpt>
      <trkpt lat="47.09234" lon="6.18334">
        <ele>359.792511</ele>
        <time>2020-08-22T09:34:11Z</time>
      </trkpt>
      <trkpt lat="47.09257" lon="6.18329">
        <ele>362.087921</ele>
        <time>2020-08-22T09:34:16Z</time>
      </trkpt>
      <trkpt lat="47.09274" lon="6.18333">
        <ele>364.395691</ele>
        <time>2020-08-22T09:34:20Z</time>
      </trkpt>
      <trkpt lat="47.09285" lon="6.18341">
        <ele>366.556458</ele>
        <time>2020-08-22T09:34:23Z</time>
      </trkpt>
      <trkpt lat="47.09301" lon="6.18332">
        <ele>368.037872</ele>
        <time>2020-08-22T09:34:27Z</time>
      </trkpt>
      <trkpt lat="47.09341" lon="6.183">
        <ele>368.991852</ele>
        <time>2020-08-22T09:34:38Z</time>
      </trkpt>
      <trkpt lat="47.09382" lon="6.18256">
        <ele>368.676788</ele>
        <time>2020-08-22T09:34:50Z</time>
      </trkpt>
      <trkpt lat="47.09408" lon="6.18234">
        <ele>369.639832</ele>
        <time>2020-08-22T09:34:57Z</time>
      </trkpt>
      <trkpt lat="47.0944" lon="6.18218">
        <ele>370.8302</ele>
        <time>2020-08-22T09:35:05Z</time>
      </trkpt>
      <trkpt lat="47.09476" lon="6.18223">
        <ele>375.29126</ele>
        <time>2020-08-22T09:35:13Z</time>
      </trkpt>
      <trkpt lat="47.09537" lon="6.18216">
        <ele>374.959991</ele>
        <time>2020-08-22T09:35:27Z</time>
      </trkpt>
      <trkpt lat="47.09588" lon="6.18213">
        <ele>373.576569</ele>
        <time>2020-08-22T09:35:39Z</time>
      </trkpt>
      <trkpt lat="47.09654" lon="6.18177">
        <ele>367.883759</ele>
        <time>2020-08-22T09:35:56Z</time>
      </trkpt>
      <trkpt lat="47.09681" lon="6.18156">
        <ele>365.816254</ele>
        <time>2020-08-22T09:36:03Z</time>
      </trkpt>
      <trkpt lat="47.09696" lon="6.18151">
        <ele>365.789551</ele>
        <time>2020-08-22T09:36:06Z</time>
      </trkpt>
      <trkpt lat="47.09778" lon="6.18149">
        <ele>367.544861</ele>
        <time>2020-08-22T09:36:25Z</time>
      </trkpt>
      <trkpt lat="47.09871" lon="6.18155">
        <ele>365.528931</ele>
        <time>2020-08-22T09:36:47Z</time>
      </trkpt>
      <trkpt lat="47.09961" lon="6.18173">
        <ele>364.282776</ele>
        <time>2020-08-22T09:37:08Z</time>
      </trkpt>
      <trkpt lat="47.09988" lon="6.18175">
        <ele>362.322083</ele>
        <time>2020-08-22T09:37:15Z</time>
      </trkpt>
      <trkpt lat="47.10024" lon="6.18183">
        <ele>360.600098</ele>
        <time>2020-08-22T09:37:23Z</time>
      </trkpt>
      <trkpt lat="47.10066" lon="6.18197">
        <ele>358.993378</ele>
        <time>2020-08-22T09:37:33Z</time>
      </trkpt>
      <trkpt lat="47.10159" lon="6.18253">
        <ele>357.093414</ele>
        <time>2020-08-22T09:37:57Z</time>
      </trkpt>
      <trkpt lat="47.10211" lon="6.18316">
        <ele>361.710846</ele>
        <time>2020-08-22T09:38:13Z</time>
      </trkpt>
      <trkpt lat="47.10252" lon="6.18341">
        <ele>361.690033</ele>
        <time>2020-08-22T09:38:23Z</time>
      </trkpt>
      <trkpt lat="47.10278" lon="6.18363">
        <ele>362.482452</ele>
        <time>2020-08-22T09:38:30Z</time>
      </trkpt>
      <trkpt lat="47.10317" lon="6.18389">
        <ele>360.557098</ele>
        <time>2020-08-22T09:38:40Z</time>
      </trkpt>
      <trkpt lat="47.10395" lon="6.18428">
        <ele>359.670105</ele>
        <time>2020-08-22T09:38:59Z</time>
      </trkpt>
      <trkpt lat="47.10566" lon="6.18524">
        <ele>361.134735</ele>
        <time>2020-08-22T09:39:42Z</time>
      </trkpt>
      <trkpt lat="47.10603" lon="6.18542">
        <ele>360.856964</ele>
        <time>2020-08-22T09:39:51Z</time>
      </trkpt>
      <trkpt lat="47.10617" lon="6.18553">
        <ele>361.779907</ele>
        <time>2020-08-22T09:39:55Z</time>
      </trkpt>
      <trkpt lat="47.10632" lon="6.1856">
        <ele>362.125793</ele>
        <time>2020-08-22T09:39:58Z</time>
      </trkpt>
      <trkpt lat="47.10643" lon="6.18556">
        <ele>361.935303</ele>
        <time>2020-08-22T09:40:01Z</time>
      </trkpt>
      <trkpt lat="47.10651" lon="6.18543">
        <ele>361.269989</ele>
        <time>2020-08-22T09:40:04Z</time>
      </trkpt>
      <trkpt lat="47.10654" lon="6.18526">
        <ele>363.068817</ele>
        <time>2020-08-22T09:40:07Z</time>
      </trkpt>
      <trkpt lat="47.10651" lon="6.18514">
        <ele>364.670105</ele>
        <time>2020-08-22T09:40:09Z</time>
      </trkpt>
      <trkpt lat="47.10589" lon="6.18466">
        <ele>365.942505</ele>
        <time>2020-08-22T09:40:25Z</time>
      </trkpt>
      <trkpt lat="47.10497" lon="6.18425">
        <ele>364.970581</ele>
        <time>2020-08-22T09:40:47Z</time>
      </trkpt>
      <trkpt lat="47.10439" lon="6.18393">
        <ele>359.71051</ele>
        <time>2020-08-22T09:41:02Z</time>
      </trkpt>
      <trkpt lat="47.10428" lon="6.18384">
        <ele>360.196228</ele>
        <time>2020-08-22T09:41:05Z</time>
      </trkpt>
      <trkpt lat="47.10399" lon="6.18347">
        <ele>362.971497</ele>
        <time>2020-08-22T09:41:14Z</time>
      </trkpt>
      <trkpt lat="47.1035" lon="6.18301">
        <ele>360.073517</ele>
        <time>2020-08-22T09:41:27Z</time>
      </trkpt>
      <trkpt lat="47.10325" lon="6.18274">
        <ele>359.717804</ele>
        <time>2020-08-22T09:41:35Z</time>
      </trkpt>
      <trkpt lat="47.10259" lon="6.18189">
        <ele>358.846039</ele>
        <time>2020-08-22T09:41:55Z</time>
      </trkpt>
      <trkpt lat="47.10237" lon="6.18176">
        <ele>355.940796</ele>
        <time>2020-08-22T09:42:01Z</time>
      </trkpt>
      <trkpt lat="47.10222" lon="6.18163">
        <ele>356.054871</ele>
        <time>2020-08-22T09:42:05Z</time>
      </trkpt>
      <trkpt lat="47.10159" lon="6.18088">
        <ele>356.354736</ele>
        <time>2020-08-22T09:42:24Z</time>
      </trkpt>
      <trkpt lat="47.10117" lon="6.18061">
        <ele>353.90741</ele>
        <time>2020-08-22T09:42:34Z</time>
      </trkpt>
      <trkpt lat="47.10073" lon="6.1802">
        <ele>353.630341</ele>
        <time>2020-08-22T09:42:47Z</time>
      </trkpt>
      <trkpt lat="47.10054" lon="6.17995">
        <ele>355.203949</ele>
        <time>2020-08-22T09:42:53Z</time>
      </trkpt>
      <trkpt lat="47.10035" lon="6.1798">
        <ele>354.906006</ele>
        <time>2020-08-22T09:42:58Z</time>
      </trkpt>
      <trkpt lat="47.09994" lon="6.17976">
        <ele>351.554932</ele>
        <time>2020-08-22T09:43:07Z</time>
      </trkpt>
      <trkpt lat="47.09966" lon="6.17961">
        <ele>350.68457</ele>
        <time>2020-08-22T09:43:14Z</time>
      </trkpt>
      <trkpt lat="47.09944" lon="6.17939">
        <ele>351.646118</ele>
        <time>2020-08-22T09:43:20Z</time>
      </trkpt>
      <trkpt lat="47.09928" lon="6.17928">
        <ele>351.259338</ele>
        <time>2020-08-22T09:43:24Z</time>
      </trkpt>
      <trkpt lat="47.09874" lon="6.17911">
        <ele>347.453156</ele>
        <time>2020-08-22T09:43:37Z</time>
      </trkpt>
      <trkpt lat="47.09854" lon="6.17895">
        <ele>346.278107</ele>
        <time>2020-08-22T09:43:43Z</time>
      </trkpt>
      <trkpt lat="47.09786" lon="6.17855">
        <ele>342.717987</ele>
        <time>2020-08-22T09:44:00Z</time>
      </trkpt>
      <trkpt lat="47.09766" lon="6.17855">
        <ele>341.812164</ele>
        <time>2020-08-22T09:44:04Z</time>
      </trkpt>
      <trkpt lat="47.09747" lon="6.17864">
        <ele>340.699341</ele>
        <time>2020-08-22T09:44:09Z</time>
      </trkpt>
      <trkpt lat="47.09727" lon="6.17864">
        <ele>340.438538</ele>
        <time>2020-08-22T09:44:14Z</time>
      </trkpt>
      <trkpt lat="47.09695" lon="6.17859">
        <ele>340.202728</ele>
        <time>2020-08-22T09:44:21Z</time>
      </trkpt>
      <trkpt lat="47.09679" lon="6.17835">
        <ele>340.238373</ele>
        <time>2020-08-22T09:44:27Z</time>
      </trkpt>
      <trkpt lat="47.09663" lon="6.17803">
        <ele>340.093994</ele>
        <time>2020-08-22T09:44:33Z</time>
      </trkpt>
      <trkpt lat="47.0965" lon="6.17767">
        <ele>339.93338</ele>
        <time>2020-08-22T09:44:39Z</time>
      </trkpt>
      <trkpt lat="47.09611" lon="6.17618">
        <ele>335.891266</ele>
        <time>2020-08-22T09:45:05Z</time>
      </trkpt>
      <trkpt lat="47.09595" lon="6.17609">
        <ele>335.412506</ele>
        <time>2020-08-22T09:45:09Z</time>
      </trkpt>
      <trkpt lat="47.09598" lon="6.17584">
        <ele>335.538635</ele>
        <time>2020-08-22T09:45:13Z</time>
      </trkpt>
      <trkpt lat="47.09622" lon="6.17515">
        <ele>337.138214</ele>
        <time>2020-08-22T09:45:25Z</time>
      </trkpt>
      <trkpt lat="47.09648" lon="6.17407">
        <ele>340.695007</ele>
        <time>2020-08-22T09:45:43Z</time>
      </trkpt>
      <trkpt lat="47.09667" lon="6.17305">
        <ele>342.011444</ele>
        <time>2020-08-22T09:46:00Z</time>
      </trkpt>
      <trkpt lat="47.0968" lon="6.17252">
        <ele>341.074066</ele>
        <time>2020-08-22T09:46:09Z</time>
      </trkpt>
      <trkpt lat="47.09755" lon="6.1704">
        <ele>341.267487</ele>
        <time>2020-08-22T09:46:47Z</time>
      </trkpt>
      <trkpt lat="47.09802" lon="6.16922">
        <ele>341.009918</ele>
        <time>2020-08-22T09:47:09Z</time>
      </trkpt>
      <trkpt lat="47.09833" lon="6.16854">
        <ele>340.127289</ele>
        <time>2020-08-22T09:47:22Z</time>
      </trkpt>
      <trkpt lat="47.09892" lon="6.16786">
        <ele>340.561249</ele>
        <time>2020-08-22T09:47:39Z</time>
      </trkpt>
      <trkpt lat="47.09959" lon="6.1672">
        <ele>338.977356</ele>
        <time>2020-08-22T09:47:58Z</time>
      </trkpt>
      <trkpt lat="47.10105" lon="6.16593">
        <ele>337.322174</ele>
        <time>2020-08-22T09:48:38Z</time>
      </trkpt>
      <trkpt lat="47.10167" lon="6.16548">
        <ele>337.268738</ele>
        <time>2020-08-22T09:48:54Z</time>
      </trkpt>
      <trkpt lat="47.10226" lon="6.16516">
        <ele>336.8302</ele>
        <time>2020-08-22T09:49:09Z</time>
      </trkpt>
      <trkpt lat="47.10307" lon="6.16478">
        <ele>336.534119</ele>
        <time>2020-08-22T09:49:29Z</time>
      </trkpt>
      <trkpt lat="47.10336" lon="6.16459">
        <ele>336.361298</ele>
        <time>2020-08-22T09:49:36Z</time>
      </trkpt>
      <trkpt lat="47.10363" lon="6.16434">
        <ele>337.163361</ele>
        <time>2020-08-22T09:49:43Z</time>
      </trkpt>
      <trkpt lat="47.10394" lon="6.16385">
        <ele>336.537231</ele>
        <time>2020-08-22T09:49:54Z</time>
      </trkpt>
      <trkpt lat="47.10409" lon="6.16354">
        <ele>336.732788</ele>
        <time>2020-08-22T09:50:00Z</time>
      </trkpt>
      <trkpt lat="47.10428" lon="6.16294">
        <ele>335.214813</ele>
        <time>2020-08-22T09:50:11Z</time>
      </trkpt>
      <trkpt lat="47.10481" lon="6.16034">
        <ele>335.008179</ele>
        <time>2020-08-22T09:50:54Z</time>
      </trkpt>
      <trkpt lat="47.10497" lon="6.15938">
        <ele>332.740631</ele>
        <time>2020-08-22T09:51:09Z</time>
      </trkpt>
      <trkpt lat="47.10498" lon="6.15895">
        <ele>331.564484</ele>
        <time>2020-08-22T09:51:16Z</time>
      </trkpt>
      <trkpt lat="47.10496" lon="6.15857">
        <ele>331.141571</ele>
        <time>2020-08-22T09:51:22Z</time>
      </trkpt>
      <trkpt lat="47.10488" lon="6.15814">
        <ele>331.125</ele>
        <time>2020-08-22T09:51:29Z</time>
      </trkpt>
      <trkpt lat="47.10456" lon="6.15751">
        <ele>332.41449</ele>
        <time>2020-08-22T09:51:42Z</time>
      </trkpt>
      <trkpt lat="47.10456" lon="6.15723">
        <ele>334.909393</ele>
        <time>2020-08-22T09:51:46Z</time>
      </trkpt>
      <trkpt lat="47.10447" lon="6.15664">
        <ele>339.290009</ele>
        <time>2020-08-22T09:51:56Z</time>
      </trkpt>
      <trkpt lat="47.10439" lon="6.15646">
        <ele>340.154999</ele>
        <time>2020-08-22T09:51:59Z</time>
      </trkpt>
      <trkpt lat="47.10432" lon="6.15642">
        <ele>340.209991</ele>
        <time>2020-08-22T09:52:01Z</time>
      </trkpt>
      <trkpt lat="47.10416" lon="6.15657">
        <ele>338.88501</ele>
        <time>2020-08-22T09:52:06Z</time>
      </trkpt>
      <trkpt lat="47.10412" lon="6.15675">
        <ele>337.700012</ele>
        <time>2020-08-22T09:52:09Z</time>
      </trkpt>
      <trkpt lat="47.104" lon="6.15784">
        <ele>331.131714</ele>
        <time>2020-08-22T09:52:26Z</time>
      </trkpt>
      <trkpt lat="47.1037" lon="6.15918">
        <ele>336.167511</ele>
        <time>2020-08-22T09:52:49Z</time>
      </trkpt>
      <trkpt lat="47.10359" lon="6.1595">
        <ele>336.420288</ele>
        <time>2020-08-22T09:52:54Z</time>
      </trkpt>
      <trkpt lat="47.10307" lon="6.16047">
        <ele>335.75354</ele>
        <time>2020-08-22T09:53:14Z</time>
      </trkpt>
      <trkpt lat="47.1028" lon="6.16064">
        <ele>336.317444</ele>
        <time>2020-08-22T09:53:21Z</time>
      </trkpt>
      <trkpt lat="47.10267" lon="6.16064">
        <ele>336.846344</ele>
        <time>2020-08-22T09:53:24Z</time>
      </trkpt>
      <trkpt lat="47.10234" lon="6.16042">
        <ele>338.011261</ele>
        <time>2020-08-22T09:53:32Z</time>
      </trkpt>
      <trkpt lat="47.10209" lon="6.16019">
        <ele>338.907501</ele>
        <time>2020-08-22T09:53:39Z</time>
      </trkpt>
      <trkpt lat="47.1019" lon="6.16009">
        <ele>339.46875</ele>
        <time>2020-08-22T09:53:44Z</time>
      </trkpt>
      <trkpt lat="47.10166" lon="6.16">
        <ele>340.118744</ele>
        <time>2020-08-22T09:53:50Z</time>
      </trkpt>
      <trkpt lat="47.10142" lon="6.16002">
        <ele>340.592499</ele>
        <time>2020-08-22T09:53:55Z</time>
      </trkpt>
      <trkpt lat="47.10109" lon="6.16009">
        <ele>340.356262</ele>
        <time>2020-08-22T09:54:03Z</time>
      </trkpt>
      <trkpt lat="47.10086" lon="6.16023">
        <ele>339.618744</ele>
        <time>2020-08-22T09:54:09Z</time>
      </trkpt>
      <trkpt lat="47.10083" lon="6.16046">
        <ele>339.217499</ele>
        <time>2020-08-22T09:54:13Z</time>
      </trkpt>
      <trkpt lat="47.10103" lon="6.1609">
        <ele>339.27359</ele>
        <time>2020-08-22T09:54:21Z</time>
      </trkpt>
      <trkpt lat="47.10131" lon="6.16157">
        <ele>338.352509</ele>
      </trkpt>
      <trkpt lat="47.10162" lon="6.16164">
        <ele>337.588745</ele>
      </trkpt>
      <trkpt lat="47.10179" lon="6.16175">
        <ele>336.795013</ele>
        <time>2020-08-22T08:00:06Z</time>
      </trkpt>
      <trkpt lat="47.10183" lon="6.16194">
        <ele>336.301239</ele>
        <time>2020-08-22T08:00:09Z</time>
      </trkpt>
      <trkpt lat="47.10181" lon="6.16222">
        <ele>335.537506</ele>
        <time>2020-08-22T08:00:14Z</time>
      </trkpt>
      <trkpt lat="47.10165" lon="6.16249">
        <ele>335.355011</ele>
        <time>2020-08-22T08:00:19Z</time>
      </trkpt>
      <trkpt lat="47.10144" lon="6.16254">
        <ele>335.632507</ele>
        <time>2020-08-22T08:00:24Z</time>
      </trkpt>
      <trkpt lat="47.10136" lon="6.16249">
        <ele>335.94751</ele>
        <time>2020-08-22T08:00:26Z</time>
      </trkpt>
      <trkpt lat="47.10127" lon="6.16247">
        <ele>336.1875</ele>
        <time>2020-08-22T08:00:28Z</time>
      </trkpt>
      <trkpt lat="47.10105" lon="6.16268">
        <ele>335.980011</ele>
        <time>2020-08-22T08:00:35Z</time>
      </trkpt>
      <trkpt lat="47.10096" lon="6.16274">
        <ele>335.972504</ele>
        <time>2020-08-22T08:00:37Z</time>
      </trkpt>
      <trkpt lat="47.10075" lon="6.16282">
        <ele>336.144989</ele>
        <time>2020-08-22T08:00:42Z</time>
      </trkpt>
      <trkpt lat="47.10057" lon="6.16298">
        <ele>335.893738</ele>
        <time>2020-08-22T08:00:47Z</time>
      </trkpt>
      <trkpt lat="47.09894" lon="6.1646">
        <ele>335.550018</ele>
        <time>2020-08-22T08:01:33Z</time>
      </trkpt>
      <trkpt lat="47.09838" lon="6.16521">
        <ele>335.808746</ele>
        <time>2020-08-22T08:01:49Z</time>
      </trkpt>
      <trkpt lat="47.09626" lon="6.16735">
        <ele>338.834991</ele>
        <time>2020-08-22T08:02:49Z</time>
      </trkpt>
      <trkpt lat="47.09548" lon="6.16809">
        <ele>339.00769</ele>
        <time>2020-08-22T08:03:11Z</time>
      </trkpt>
      <trkpt lat="47.09521" lon="6.16841">
        <ele>338.513763</ele>
        <time>2020-08-22T08:03:19Z</time>
      </trkpt>
      <trkpt lat="47.09477" lon="6.16883">
        <ele>338</ele>
        <time>2020-08-22T08:03:31Z</time>
      </trkpt>
      <trkpt lat="47.09467" lon="6.16898">
        <ele>338</ele>
        <time>2020-08-22T08:03:35Z</time>
      </trkpt>
      <trkpt lat="47.09456" lon="6.16896">
        <ele>338</ele>
        <time>2020-08-22T08:03:37Z</time>
      </trkpt>
      <trkpt lat="47.09437" lon="6.16885">
        <ele>338</ele>
        <time>2020-08-22T08:03:42Z</time>
      </trkpt>
      <trkpt lat="47.09384" lon="6.16829">
        <ele>339.042999</ele>
        <time>2020-08-22T08:03:57Z</time>
      </trkpt>
      <trkpt lat="47.09361" lon="6.168">
        <ele>340.359985</ele>
        <time>2020-08-22T08:04:04Z</time>
      </trkpt>
      <trkpt lat="47.09353" lon="6.16806">
        <ele>340.334991</ele>
        <time>2020-08-22T08:04:06Z</time>
      </trkpt>
      <trkpt lat="47.09338" lon="6.16825">
        <ele>340.044983</ele>
        <time>2020-08-22T08:04:11Z</time>
      </trkpt>
      <trkpt lat="47.09279" lon="6.16886">
        <ele>339.195007</ele>
        <time>2020-08-22T08:04:28Z</time>
      </trkpt>
      <trkpt lat="47.0925" lon="6.16982">
        <ele>341.184875</ele>
        <time>2020-08-22T08:04:44Z</time>
      </trkpt>
      <trkpt lat="47.09215" lon="6.17063">
        <ele>342.200012</ele>
        <time>2020-08-22T08:05:00Z</time>
      </trkpt>
      <trkpt lat="47.0919" lon="6.17195">
        <ele>337.204407</ele>
        <time>2020-08-22T08:05:22Z</time>
      </trkpt>
      <trkpt lat="47.0918" lon="6.17215">
        <ele>337.742737</ele>
        <time>2020-08-22T08:05:25Z</time>
      </trkpt>
      <trkpt lat="47.0915" lon="6.17257">
        <ele>338.934814</ele>
        <time>2020-08-22T08:05:35Z</time>
      </trkpt>
      <trkpt lat="47.09031" lon="6.17438">
        <ele>342.822998</ele>
        <time>2020-08-22T08:06:15Z</time>
      </trkpt>
      <trkpt lat="47.0898" lon="6.1752">
        <ele>343.049652</ele>
        <time>2020-08-22T08:06:33Z</time>
      </trkpt>
      <trkpt lat="47.08927" lon="6.17629">
        <ele>341.331879</ele>
        <time>2020-08-22T08:06:54Z</time>
      </trkpt>
      <trkpt lat="47.08845" lon="6.17827">
        <ele>341.046051</ele>
        <time>2020-08-22T08:07:31Z</time>
      </trkpt>
      <trkpt lat="47.08795" lon="6.17921">
        <ele>340.529053</ele>
        <time>2020-08-22T08:07:50Z</time>
      </trkpt>
      <trkpt lat="47.08711" lon="6.18024">
        <ele>338.098053</ele>
        <time>2020-08-22T08:08:15Z</time>
      </trkpt>
      <trkpt lat="47.08679" lon="6.18056">
        <ele>338.706055</ele>
        <time>2020-08-22T08:08:25Z</time>
      </trkpt>
      <trkpt lat="47.08589" lon="6.18121">
        <ele>339.56601</ele>
        <time>2020-08-22T08:08:48Z</time>
      </trkpt>
      <trkpt lat="47.08534" lon="6.18153">
        <ele>341.122009</ele>
        <time>2020-08-22T08:09:02Z</time>
      </trkpt>
      <trkpt lat="47.08365" lon="6.18238">
        <ele>344.882507</ele>
        <time>2020-08-22T08:09:43Z</time>
      </trkpt>
      <trkpt lat="47.08302" lon="6.18278">
        <ele>345.182037</ele>
        <time>2020-08-22T08:10:00Z</time>
      </trkpt>
      <trkpt lat="47.08234" lon="6.18325">
        <ele>343.223053</ele>
        <time>2020-08-22T08:10:17Z</time>
      </trkpt>
      <trkpt lat="47.08201" lon="6.18367">
        <ele>341.390015</ele>
        <time>2020-08-22T08:10:27Z</time>
      </trkpt>
      <trkpt lat="47.08186" lon="6.18364">
        <ele>347.088837</ele>
        <time>2020-08-22T08:10:31Z</time>
      </trkpt>
      <trkpt lat="47.08174" lon="6.18382">
        <ele>349.065002</ele>
        <time>2020-08-22T08:10:35Z</time>
      </trkpt>
      <trkpt lat="47.08136" lon="6.18468">
        <ele>348.556</ele>
        <time>2020-08-22T08:10:51Z</time>
      </trkpt>
      <trkpt lat="47.0809" lon="6.18554">
        <ele>345.560791</ele>
        <time>2020-08-22T08:11:08Z</time>
      </trkpt>
      <trkpt lat="47.08075" lon="6.18588">
        <ele>340</ele>
      </trkpt>
      <trkpt lat="47.08052" lon="6.18613">
        <ele>342.347137</ele>
      </trkpt>
    </trkseg>
  </trk>
</gpx>